TimePST,TemperatureF,Dew PointF,Humidity,Sea Level PressureIn,VisibilityMPH,Wind Direction,Wind SpeedMPH,Gust SpeedMPH,PrecipitationIn,Events,Conditions,WindDirDegrees,DateUTC
12:55 AM,33.1,30.9,92,29.61,0.8,Calm,Calm,-,N/A,,Mist,0,2012-12-12 08:55:00
1:10 AM,33.8,30.2,87,29.58,5.0,Calm,Calm,-,N/A,,Overcast,0,2012-12-12 09:10:00
1:55 AM,33.1,30.0,89,29.62,7.0,WNW,3.5,-,N/A,,Overcast,300,2012-12-12 09:55:00
2:24 AM,33.8,30.2,87,29.60,7.0,West,4.6,-,N/A,,Overcast,280,2012-12-12 10:24:00
2:55 AM,33.1,30.0,89,29.63,7.0,WNW,4.6,-,N/A,,Overcast,300,2012-12-12 10:55:00
3:40 AM,33.8,30.2,87,29.61,7.0,Calm,Calm,-,N/A,,Overcast,0,2012-12-12 11:40:00
3:55 AM,33.1,30.9,92,29.64,8.0,Calm,Calm,-,N/A,,Overcast,0,2012-12-12 11:55:00
4:55 AM,33.1,30.9,92,29.65,8.0,WNW,3.5,-,N/A,,Overcast,290,2012-12-12 12:55:00
5:47 AM,33.8,30.2,87,29.64,8.0,West,3.5,-,N/A,,Overcast,280,2012-12-12 13:47:00
5:55 AM,33.1,30.9,92,29.67,8.0,West,3.5,-,N/A,,Overcast,270,2012-12-12 13:55:00
6:17 AM,33.8,30.2,87,29.65,10.0,Calm,Calm,-,N/A,,Overcast,0,2012-12-12 14:17:00
6:55 AM,34.0,30.0,85,29.70,10.0,Calm,Calm,-,N/A,,Overcast,0,2012-12-12 14:55:00
7:55 AM,34.0,30.0,85,29.72,10.0,Calm,Calm,-,N/A,,Overcast,0,2012-12-12 15:55:00
8:55 AM,35.1,30.0,82,29.75,10.0,Calm,Calm,-,N/A,,Overcast,0,2012-12-12 16:55:00
9:48 AM,35.6,30.2,81,29.75,10.0,Calm,Calm,-,N/A,,Overcast,0,2012-12-12 17:48:00
9:55 AM,35.1,30.9,85,29.78,10.0,Calm,Calm,-,N/A,,Overcast,0,2012-12-12 17:55:00
10:55 AM,35.1,30.9,85,29.80,10.0,Calm,Calm,-,N/A,,Overcast,0,2012-12-12 18:55:00
11:55 AM,36.0,30.0,79,29.81,10.0,NW,3.5,-,N/A,,Overcast,320,2012-12-12 19:55:00
12:55 PM,37.0,30.9,79,29.82,10.0,Calm,Calm,-,N/A,,Overcast,0,2012-12-12 20:55:00
1:55 PM,37.9,32.0,79,29.83,10.0,Calm,Calm,-,0.00,Rain,Light Rain,0,2012-12-12 21:55:00
2:09 PM,37.4,30.2,75,29.81,10.0,Calm,Calm,-,0.00,Rain,Light Rain,0,2012-12-12 22:09:00
2:55 PM,37.9,32.0,79,29.86,10.0,Calm,Calm,-,0.00,,Overcast,0,2012-12-12 22:55:00
3:55 PM,37.0,30.9,79,29.88,10.0,Calm,Calm,-,N/A,,Overcast,0,2012-12-12 23:55:00
4:55 PM,35.1,30.0,82,29.90,10.0,Calm,Calm,-,N/A,,Scattered Clouds,0,2012-12-13 00:55:00
5:55 PM,33.1,28.9,85,29.91,10.0,Calm,Calm,-,N/A,,Overcast,0,2012-12-13 01:55:00
6:55 PM,34.0,30.0,85,29.92,10.0,Calm,Calm,-,N/A,,Overcast,0,2012-12-13 02:55:00
7:55 PM,34.0,30.0,85,29.94,10.0,Calm,Calm,-,N/A,,Overcast,0,2012-12-13 03:55:00
8:51 PM,33.8,30.2,87,29.94,10.0,WNW,4.6,-,N/A,,Overcast,300,2012-12-13 04:51:00
8:55 PM,34.0,30.9,89,29.97,10.0,NW,5.8,-,N/A,,Overcast,310,2012-12-13 04:55:00
9:42 PM,35.6,32.0,87,29.96,10.0,WNW,4.6,-,N/A,,Overcast,300,2012-12-13 05:42:00
9:55 PM,35.1,32.0,89,29.99,9.0,Calm,Calm,-,N/A,,Overcast,0,2012-12-13 05:55:00
10:55 PM,35.1,30.9,85,30.00,8.0,Calm,Calm,-,N/A,,Overcast,0,2012-12-13 06:55:00
11:55 PM,33.1,30.0,89,30.01,10.0,Calm,Calm,-,N/A,,Overcast,0,2012-12-13 07:55:00